Pagina principale
METAR-TAF:

METAR-TAF

Aeroporti :

Messina, Italia

latitudine: 38-12N, longitudine: 015-33E, altezza: 59 m

Osservazione

Il bollettino è stato emesso 34 minuti fa, alle 04:55 UTC
Vento 6 kt da nord
Temperature 10°C
Umidità 87%
Pressione 1022 hPa
Visibilità 10 km o più
Poco nuvoloso ad un'altezza di 4000 ft

METAR: LICF 200455Z 35006KT 9999 FEW040 10/08 Q1022 RMK FEW QUK / QUL / VIS MAR 16 KM MON INVIS NC VIS MIN 9999

Ora: 06:29 (05:29 UTC)


TAF: mancante

Osservazioni e previsioni meteorologiche di più di 4000 aeroporti (messaggi METAR e TAF).

Le stazioni disponibili sono rappresentate dai dischi gialli e rossi sulla carta.

Puntare il mouse per vedere il nome della stazione.

Clicca sopra per visualizzare le osservazioni e previsioni meteorologiche.

Per cambiare la mappa : fare clic sui pulsanti verdi con una croce nera per ingrandire, il pulsante verde con un trattino per diminuire, o sulla freccia verde per le mappe adiacenti.


METAR-TAF: